Location: *
(32.8140°S, 174.6161°E)
Time: 12:33:59
(UTC+00:00)

Cosmos 1500 Rocket - Pass Details

Date: 10 December 2019
Orbit: 604 x 631 km, 82.5° (Epoch: 25 January)

Event Time Altitude Azimuth Distance (km) Brightness Sun altitude
Rises 14:09:46 0° 181° (S) 2,956 7.9 -27.8°
Reaches altitude 10° 14:12:05 10° 175° (S) 2,040 7.0 -27.6°
Enters shadow 14:16:30 52° 99° (E) 795 4.2 -27.1°
